Location: Azat
(46.0765°N, 1.7600°E)
Time: 15:13:11
(UTC+00:00)

USA 234 - Pass Details

Date: 09 April 2020
Orbit: 1102 x 1106 km, 123.0° (Epoch: 14 May)

Event Time Altitude Azimuth Distance (km) Brightness Sun altitude
Rises 23:18:32 0° 56° (NE) 3,924 6.4 -35.3°
Reaches altitude 10° 23:21:08 10° 50° (NE) 2,966 5.8 -35.4°
Maximum altitude 23:27:13 43° 342° (NNW) 1,507 4.2 -35.5°
Drops below altitude 10° 23:33:17 10° 274° (W) 2,962 5.6 -35.7°
Sets 23:35:53 0° 268° (W) 3,919 6.2 -35.7°
